TimeEST,TemperatureF,Dew PointF,Humidity,Sea Level PressureIn,VisibilityMPH,Wind Direction,Wind SpeedMPH,Gust SpeedMPH,PrecipitationIn,Events,Conditions,WindDirDegrees,DateUTC
12:53 AM,28.0,23.0,81,30.14,7.0,Calm,Calm,-,N/A,,Clear,0,2012-11-26 05:53:00
1:53 AM,28.0,23.0,81,30.14,7.0,Calm,Calm,-,N/A,,Clear,0,2012-11-26 06:53:00
2:53 AM,27.0,23.0,85,30.15,6.0,Calm,Calm,-,N/A,,Clear,0,2012-11-26 07:53:00
3:53 AM,28.0,24.1,85,30.16,8.0,Calm,Calm,-,N/A,,Clear,0,2012-11-26 08:53:00
4:53 AM,27.0,23.0,85,30.17,7.0,Calm,Calm,-,N/A,,Clear,0,2012-11-26 09:53:00
5:53 AM,27.0,24.1,89,30.19,8.0,Calm,Calm,-,N/A,,Clear,0,2012-11-26 10:53:00
6:53 AM,28.0,24.1,85,30.22,10.0,Calm,Calm,-,N/A,,Clear,0,2012-11-26 11:53:00
7:53 AM,28.9,25.0,85,30.23,7.0,Calm,Calm,-,N/A,,Clear,0,2012-11-26 12:53:00
8:53 AM,35.1,28.9,78,30.24,10.0,Calm,Calm,-,N/A,,Clear,0,2012-11-26 13:53:00
9:53 AM,44.1,30.0,58,30.24,10.0,Calm,Calm,-,N/A,,Clear,0,2012-11-26 14:53:00
10:53 AM,52.0,30.0,43,30.23,10.0,Calm,Calm,-,N/A,,Clear,0,2012-11-26 15:53:00
11:53 AM,57.9,27.0,31,30.20,10.0,Variable,3.5,-,N/A,,Clear,0,2012-11-26 16:53:00
12:53 PM,61.0,30.0,31,30.17,10.0,Calm,Calm,-,N/A,,Clear,0,2012-11-26 17:53:00
1:53 PM,64.0,28.9,27,30.15,6.0,Calm,Calm,-,N/A,,Haze,0,2012-11-26 18:53:00
2:53 PM,64.0,28.9,27,30.13,8.0,North,4.6,-,N/A,,Clear,360,2012-11-26 19:53:00
3:53 PM,66.9,28.0,23,30.10,10.0,Calm,Calm,-,N/A,,Clear,0,2012-11-26 20:53:00
4:53 PM,64.0,24.1,22,30.12,10.0,Calm,Calm,-,N/A,,Mostly Cloudy,0,2012-11-26 21:53:00
5:53 PM,60.1,28.0,30,30.13,10.0,Calm,Calm,-,N/A,,Partly Cloudy,0,2012-11-26 22:53:00
6:53 PM,61.0,25.0,25,30.14,10.0,South,5.8,-,N/A,,Overcast,190,2012-11-26 23:53:00
7:53 PM,57.9,30.9,36,30.14,10.0,South,4.6,-,0.00,,Overcast,170,2012-11-27 00:53:00
8:53 PM,57.9,32.0,37,30.15,10.0,South,3.5,-,N/A,,Overcast,180,2012-11-27 01:53:00
9:53 PM,53.1,43.0,69,30.15,10.0,Calm,Calm,-,0.00,,Overcast,0,2012-11-27 02:53:00
10:53 PM,54.0,41.0,62,30.15,10.0,Calm,Calm,-,N/A,,Overcast,0,2012-11-27 03:53:00
11:53 PM,53.1,39.9,61,30.14,10.0,Calm,Calm,-,N/A,,Overcast,0,2012-11-27 04:53:00